Location: Austin
(30.3000°N, 97.7500°W)
Time: 00:06:34
(UTC-06:00)

USA 234 - Pass Details

Date: 04 November 2025
Orbit: 1100 x 1107 km, 123.0° (Epoch: 07 November)

Event Time Altitude Azimuth Distance (km) Brightness Sun altitude
Exits shadow 19:17:39 32° 111° (ESE) 1,786 3.9 -21.2°
Maximum altitude 19:18:24 33° 125° (SE) 1,757 3.9 -21.4°
Drops below altitude 10° 19:24:08 10° 187° (S) 2,944 5.6 -22.6°
Sets 19:26:53 0° 196° (SSW) 3,899 6.4 -23.2°
